Temp
61 60 61 62 62 62 62 64 66 67 68 69 69 69 69 68 70 71 72 71 73 74
61 60 61 63 62 62 62 66 66 67 67 66 66 67 68 67 70 71 71 73 74 70
61 62 62 61 62 62 62 63 64 65 67 66 67 66 67 68 69 66 67 68 69 72
60 61 61 61 62 63 63 64 64 65 66 66 66 67 68 68 68 68 67 68 69 69
60 61 59 60 61 62 63 64 64 65 66 66 67 67 68 68 69 68 68 70 71 71
59 59 59 59 59 61 62 63 63 65 65 67 67 67 68 69 72 72 72 73 73 73
55 56 56 57 59 60 62 63 65 64 65 66 67 69 70 71 70 71 73 72 72 72
56 56 56 57 58 59 60 63 67 67 66 65 67 70 69 69 69 69 69 70 72 72
58 59 58 57 57 57 60 63 65 67 67 64 70 61 57 60 65 68 69 70 71 71
58 58 57 58 57 57 57 60 62 64 64 62 63 56 54 55 62 63 67 69 70 66
58 58 57 57 58 58 55 55 59 59 60 60 64 55 52 54 61 62 65 69 68 66
58 58 57 57 57 57 53 57 55 58 58 58 59 53 51 53 61 62 64 68 67 66
57 57 57 58 57 58 56 57 59 59 57 57 59 53 47 50 59 62 64 63 63 54
57 56 57 57 56 56 57 58 55 56 57 58 58 58 49 47 57 63 63 61 62 62
MSLP
1007.66 1008.08 1008.32 1008.40 1008.40 1008.25 1008.23 1008.26 1008.18 1008.50 1007.90 1007.23 1007.60 1008.38 1008.38 1008.78 1008.69 1008.30 1009.63 1009.23 1008.82 1008.52
1007.19 1007.56 1007.81 1007.70 1007.82 1007.85 1007.73 1007.63 1007.30 1007.52 1007.22 1007.42 1007.51 1007.66 1008.16 1007.29 1007.71 1008.10 1008.30 1008.06 1006.94 1007.43
1006.54 1006.55 1006.73 1006.96 1007.21 1007.09 1006.91 1006.93 1007.17 1007.13 1007.29 1006.60 1006.69 1006.64 1007.41 1007.64 1007.17 1007.66 1007.38 1007.05 1006.53 1006.83
1006.13 1006.22 1006.27 1006.39 1006.26 1006.17 1006.36 1006.59 1006.71 1006.68 1007.03 1006.65 1007.11 1006.99 1007.15 1007.31 1006.64 1006.25 1005.54 1005.85 1006.46 1006.06
1005.65 1005.79 1006.27 1006.48 1006.41 1006.27 1006.04 1005.98 1006.18 1006.41 1006.51 1006.58 1006.82 1006.72 1006.49 1006.58 1005.90 1005.57 1005.39 1005.27 1005.85 1005.51
1005.07 1005.25 1005.48 1005.79 1005.87 1005.82 1005.89 1005.93 1005.74 1005.57 1005.84 1006.01 1005.97 1005.84 1005.70 1005.79 1005.34 1004.91 1004.77 1004.61 1004.61 1004.98
1005.01 1005.13 1005.28 1005.30 1005.36 1005.45 1005.39 1005.48 1005.37 1005.24 1005.21 1005.21 1005.24 1005.29 1005.06 1004.72 1004.41 1004.25 1003.95 1004.02 1004.25 1004.34
1004.38 1004.54 1004.77 1004.97 1005.01 1004.93 1005.05 1004.91 1004.80 1004.67 1004.53 1004.49 1004.62 1004.62 1004.45 1004.19 1004.06 1003.78 1003.50 1003.49 1003.24 1003.25
1003.72 1003.96 1004.09 1004.27 1004.46 1004.51 1004.51 1004.33 1004.17 1003.89 1003.93 1003.83 1003.66 1003.73 1003.73 1003.75 1003.71 1003.35 1002.96 1002.75 1002.34 1002.18
1002.82 1003.04 1003.22 1003.45 1003.74 1003.95 1004.13 1004.13 1003.89 1003.45 1003.06 1002.69 1002.68 1002.83 1002.97 1002.94 1003.12 1002.98 1002.51 1002.13 1001.71 1001.93
1002.07 1002.28 1002.54 1002.71 1002.79 1002.97 1003.20 1003.14 1003.09 1002.70 1002.20 1001.85 1001.82 1001.84 1001.95 1001.95 1002.06 1001.98 1001.65 1001.15 1000.83 1001.12
1001.08 1001.36 1001.64 1001.79 1001.92 1002.05 1002.26 1002.20 1002.20 1001.96 1001.58 1001.27 1001.17 1001.17 1001.33 1001.60 1001.39 1001.10 1000.78 1000.13 999.92 1000.32
999.99 1000.33 1000.54 1000.69 1000.85 1001.08 1001.24 1001.30 1001.35 1001.11 1000.94 1000.66 1000.72 1000.65 1000.85 1001.13 1001.04 1000.61 1000.18 999.82 999.77 1000.27
998.91 999.24 999.51 999.66 999.82 1000.02 1000.33 1000.43 1000.35 1000.26 1000.20 1000.13 1000.12 999.95 1000.06 1000.37 1000.67 1000.29 999.94 999.94 999.76 1000.15
Wind_Speed
7 5 5 5 4 4 3 4 6 7 6 7 6 6 6 3 6 5 11 13 12 9
7 7 6 8 5 4 5 5 5 6 5 4 6 7 9 5 12 13 15 14 10 7
7 7 7 5 6 7 6 4 6 6 6 4 4 3 6 12 16 13 10 6 6 11
7 7 6 6 7 6 5 6 6 5 6 5 7 7 9 13 14 14 8 6 8 18
6 6 5 5 7 7 7 6 7 7 6 6 8 8 8 12 12 12 13 14 15 16
7 6 5 4 5 6 6 7 7 6 6 6 6 7 8 10 13 14 15 16 15 15
5 5 4 3 4 5 6 7 8 7 7 6 7 8 11 12 10 13 13 12 13 14
7 6 5 5 5 5 6 7 9 11 8 7 7 7 10 11 11 12 13 13 15 14
7 6 7 6 6 6 8 11 13 16 15 10 7 12 13 12 11 12 13 14 12 11
8 8 7 7 7 7 8 9 13 16 13 8 8 11 13 16 10 11 11 14 11 8
9 9 8 8 11 11 7 8 11 11 10 7 7 12 14 17 12 9 11 13 13 9
11 11 10 11 12 11 8 10 7 7 9 8 7 11 15 15 9 9 11 10 9 10
10 12 13 14 13 12 9 12 9 10 8 8 7 10 11 10 6 8 7 4 5 7
13 13 14 15 12 11 12 12 11 10 7 7 7 7 10 9 7 8 6 6 6 7
Wind_Direction
208 203 214 224 235 232 217 226 218 232 241 209 144 169 166 202 222 212 245 234 232 240
217 212 224 233 217 215 213 235 253 268 256 215 179 191 208 258 259 240 238 236 242 234
222 234 227 226 232 221 235 247 266 269 269 289 282 226 236 241 246 235 231 225 257 277
224 227 236 246 258 250 234 229 237 237 239 240 241 247 225 239 250 257 264 257 255 258
220 231 236 252 266 279 262 238 222 230 226 214 223 231 225 245 253 255 258 255 245 244
191 184 198 223 254 260 258 266 268 238 229 238 243 256 250 239 252 247 241 245 248 246
184 193 216 257 278 278 269 268 267 248 234 232 244 254 262 265 254 257 254 244 237 235
201 211 220 227 239 259 267 265 271 270 256 232 234 249 262 263 255 251 250 245 239 238
212 227 239 251 258 266 283 285 273 266 253 242 247 253 248 254 266 264 252 253 244 229
204 216 225 231 236 241 245 254 260 251 234 233 241 244 252 260 258 256 251 252 241 225
203 212 216 228 241 244 233 238 255 246 238 232 243 254 261 263 264 253 254 249 223 200
204 215 220 230 238 237 235 244 246 250 244 232 247 249 259 260 260 260 260 243 203 186
207 221 233 238 237 235 234 242 248 252 240 235 242 247 252 260 255 263 261 234 187 184
221 226 233 232 227 227 233 241 238 239 245 238 228 255 262 250 256 258 242 200 156 143